Location: Melbourne
(37.8666°S, 145.1333°E)
Time: 17:55:46
(UTC+11:00)

Iridium 72 - Visible Passes

Search period start: 01 November 2014 00:00
Search period end: 11 November 2014 00:00
Orbit: 776 x 779 km, 86.4° (Epoch: 31 October)

Date Brightness Start Highest point End Pass type
(mag) Time Alt. Az. Time Alt. Az. Time Alt. Az.
01 Nov 6.4 03:59:19 18° NNE 04:02:59 48° E 04:08:04 10° SSE visible
01 Nov 7.1 05:40:30 10° WNW 05:43:59 18° WSW 05:47:29 10° SW visible
02 Nov 7.4 03:26:14 14° NE 03:29:40 26° E 03:33:58 10° SSE visible
02 Nov 6.3 05:06:43 16° NW 05:10:12 32° W 05:14:56 10° SSW visible
03 Nov 8.1 02:53:53 10° ENE 02:56:28 14° ESE 02:59:04 10° SE visible
03 Nov 5.6 04:33:36 26° NNW 04:36:33 61° W 04:41:48 10° S visible
04 Nov 5.7 04:00:28 31° NNE 04:03:02 72° E 04:08:18 10° S visible
04 Nov 7.4 05:42:21 10° W 05:44:18 12° WSW 05:46:16 10° SW visible
05 Nov 6.8 03:27:18 25° NE 03:29:38 37° E 03:34:28 10° SSE visible
05 Nov 6.8 05:07:47 16° WNW 05:10:26 23° WSW 05:14:33 10° SSW visible
06 Nov 7.7 02:54:06 16° ENE 02:56:21 20° E 03:00:09 10° SE visible
06 Nov 6.0 04:34:35 28° NW 04:36:42 41° W 04:41:42 10° SSW visible
07 Nov 8.3 02:22:16 10° E 02:23:12 10° ESE 02:24:08 10° ESE visible
07 Nov 5.4 04:01:22 43° NNW 04:03:06 79° W 04:08:25 10° S visible
08 Nov 6.1 03:28:08 41° NE 03:29:38 55° E 03:34:48 10° SSE visible
08 Nov 7.2 05:08:37 13° WNW 05:10:43 16° WSW 05:13:49 10° SW visible
09 Nov 7.1 02:54:53 26° ENE 02:56:17 29° E 03:00:48 10° SSE visible
09 Nov 6.5 04:35:22 25° WNW 04:36:54 29° W 04:41:27 10° SSW visible
10 Nov 7.8 02:21:37 14° E 02:23:03 16° E 02:26:09 10° SE visible
10 Nov 5.7 04:02:06 45° NW 04:03:14 53° W 04:08:24 10° S visible
